Location: Albany
(35.0000°S, 118.0000°E)
Time: 04:01:48
(UTC-04:00)

Cosmos 1933 - Visible Passes

Search period start: 01 May 2016 00:00
Search period end: 11 May 2016 00:00
Orbit: 551 x 565 km, 82.5° (Epoch: 29 April)

Date Brightness Start Highest point End Pass type
(mag) Time Alt. Az. Time Alt. Az. Time Alt. Az.
01 May 4.1 06:43:27 10° SSW 06:47:29 56° W 06:51:29 10° N visible
02 May 4.5 06:41:42 10° SSW 06:45:39 46° W 06:49:35 10° NNW visible
03 May 4.9 06:39:58 10° SSW 06:43:49 39° W 06:47:38 10° NNW visible
04 May 5.3 06:38:17 10° SSW 06:41:58 32° W 06:45:40 10° NNW visible
05 May 5.7 06:36:37 10° SSW 06:40:08 27° W 06:43:38 10° NNW visible
06 May 6.0 06:34:58 10° SW 06:38:17 23° W 06:41:34 10° NW visible
06 May 6.9 17:18:56 10° ENE 17:20:03 11° E 17:21:11 10° ESE visible
07 May 6.3 06:33:24 10° SW 06:36:25 20° W 06:39:26 10° NW visible
07 May 6.7 17:16:15 10° ENE 17:18:11 13° E 17:20:06 10° ESE visible
08 May 6.5 06:31:52 10° SW 06:34:33 17° W 06:37:14 10° NW visible
08 May 6.6 17:13:52 10° NE 17:16:17 16° E 17:18:45 10° SE visible
09 May 6.6 06:30:26 10° SW 06:32:41 14° W 06:34:56 10° WNW visible
09 May 6.3 17:11:37 10° NE 17:14:26 18° E 17:17:15 10° SE visible
10 May 6.8 06:29:09 10° WSW 06:30:48 12° W 06:32:28 10° WNW visible
10 May 6.0 17:09:27 10° NE 17:12:33 22° E 17:15:42 10° SE visible
